[[{"header":{"parameterUnit":"m.s-1","parameterCategory":2,"la1":30.2991,"la2":30.254,"lo1":-89.0895,"lo2":-89.0444,"dy":0.0017,"dx":0.0017,"nx":28,"ny":28,"refTime":"2024-08-16T03:00:00:Z","depth":"0","parameterNumber":2,"parameterNumberName":"U-component_of_CURRENTS"},"data":[0,0,0,0,0,0,0,0,0,0,0,0,0,0,0,0,0,0,0,0,0,0,0,0,0,0,0,0,0,0,0,0,0,0,0,0,0,0,0,0,0,0,0,0,0,0,0,0,0,0,0,0,0,0,0,0,0,0,-0.2923,-0.2923,0,-0.2888,-0.2888,-0.2888,-0.2768,-0.2766,-0.2763,-0.276,-0.2645,-0.2645,-0.2644,0,0,0,0,0,0,0,0,0,0,0,0,0,-0.2941,-0.2941,-0.2924,-0.2923,-0.2923,-0.2889,-0.2888,-0.2888,-0.2769,-0.2765,-0.2762,-0.2759,-0.2645,-0.2645,-0.2644,0,0,0,0,0,0,0,0,0,0,0,0,0,-0.2923,-0.2941,-0.2924,-0.2859,-0.2853,-0.2889,-0.2888,-0.2888,-0.2769,-0.2765,-0.2761,-0.2757,-0.2646,-0.2645,-0.2644,-0.2721,0,0,-0.2642,-0.2641,0,0,0,0,0,0,0,0,-0.2924,-0.2922,-0.2869,-0.2863,-0.2856,-0.2828,-0.2852,-0.2828,-0.277,-0.2802,-0.276,-0.2755,-0.2702,-0.2696,-0.2701,-0.2716,-0.2711,-0.2642,-0.2641,-0.2641,-0.2641,0,0,0,0,0,0,0,-0.2925,-0.2924,-0.291,-0.2869,-0.2861,-0.285,-0.2842,-0.2848,-0.2774,-0.2799,-0.279,-0.2786,-0.2697,-0.2702,-0.2697,-0.2709,-0.2642,-0.2641,-0.2641,-0.264,-0.2745,-0.2748,0,0,0,0,0,0,-0.2931,-0.2925,-0.2911,-0.2909,-0.288,-0.2853,-0.2844,-0.2842,-0.2775,-0.2762,-0.279,-0.2781,-0.2705,-0.2698,-0.2692,-0.2729,-0.2641,-0.264,-0.264,-0.2742,-0.2746,-0.2749,0,0,0,0,0,0,-0.2931,-0.293,-0.2913,-0.2915,-0.2912,-0.2856,-0.2855,-0.2843,-0.2834,-0.277,-0.2753,-0.279,-0.2701,-0.2693,-0.2696,-0.2725,-0.264,-0.2639,-0.2738,-0.2743,-0.2748,-0.2835,0,0,0,0,0,0,-0.2932,-0.2931,-0.2931,-0.2916,-0.2912,-0.2928,-0.2858,-0.2845,-0.2838,-0.2826,-0.2766,-0.2751,-0.2698,-0.2698,-0.2695,-0.2722,-0.2639,-0.2734,-0.274,-0.2746,-0.2828,-0.2842,-0.2854,0,0,0,0,0,-0.2933,-0.295,-0.2932,-0.293,-0.2915,-0.293,-0.2928,-0.2874,-0.2843,-0.2849,-0.2813,-0.2752,-0.2734,-0.27,-0.2696,-0.2723,-0.2731,-0.2739,-0.2746,-0.2822,-0.2839,-0.2854,0,0,0,0,0,0,-0.2958,-0.2939,-0.2918,-0.2927,-0.2927,-0.2909,-0.2909,-0.2892,-0.2875,-0.2851,-0.2794,-0.278,-0.2792,-0.2768,-0.2732,-0.2778,-0.2724,-0.2731,-0.2784,-0.28,-0.2813,-0.282,-0.2638,0,0,0,0,0,-0.2969,-0.2977,-0.296,-0.2974,-0.2968,-0.2949,-0.2949,-0.2918,-0.2902,-0.2888,-0.2852,-0.2827,-0.2831,-0.2818,-0.2809,-0.2842,-0.2757,-0.2862,-0.2875,-0.2886,-0.2895,-0.2804,-0.2807,-0.2773,-0.2773,-0.2773,0,0,-0.2988,-0.2978,-0.2983,-0.2981,-0.297,-0.2993,-0.2937,-0.2939,-0.2962,-0.2884,-0.2897,-0.2872,-0.2854,-0.2875,-0.288,-0.2848,-0.2848,-0.2896,-0.2905,-0.2907,-0.2811,-0.2813,-0.2815,-0.2778,-0.2777,-0.2777,0,0,-0.3047,-0.3016,-0.3046,-0.305,-0.3039,-0.3025,-0.3032,-0.3016,-0.3,-0.3029,-0.2979,-0.2973,-0.2979,-0.296,-0.2959,-0.3054,-0.2924,-0.3057,-0.312,-0.3032,-0.3032,-0.3031,-0.2893,-0.2879,-0.3059,-0.3059,-0.3059,0,-0.3066,-0.3086,-0.3061,-0.3094,-0.309,-0.3048,-0.3075,-0.3086,-0.3076,-0.3056,-0.3037,-0.3027,-0.3022,-0.3035,-0.3085,-0.3078,-0.2986,-0.3051,-0.3042,-0.304,-0.3037,-0.2896,-0.2879,-0.3064,-0.3064,-0.3063,-0.3063,0,-0.3151,-0.3159,-0.3176,-0.3194,-0.3202,-0.3209,-0.3207,-0.3203,-0.3178,-0.3162,-0.3154,-0.3144,-0.3105,-0.3144,-0.3159,-0.3158,-0.3081,-0.3064,-0.2986,-0.3045,-0.2893,-0.2874,-0.3072,-0.307,-0.3068,-0.3067,0,0,-0.3161,-0.3222,-0.3218,-0.3172,-0.3232,-0.3184,-0.3277,-0.3263,-0.3208,-0.3247,-0.3184,-0.3278,-0.3209,-0.321,-0.3198,-0.3187,-0.3116,-0.3144,-0.3137,-0.2978,-0.2866,-0.2793,-0.2763,-0.308,-0.3079,-0.3077,-0.2752,0,-0.3206,-0.3212,-0.3299,-0.3273,-0.3214,-0.3255,-0.3297,-0.3286,-0.3263,-0.319,-0.3211,-0.3143,-0.325,-0.3178,-0.3206,-0.3121,-0.3077,-0.3202,-0.2859,-0.2848,-0.2752,-0.2744,-0.2651,-0.2353,-0.2732,-0.2729,-0.2727,0,-0.3199,-0.3179,-0.3165,-0.313,-0.3122,-0.3141,-0.3055,-0.3101,-0.3086,-0.307,-0.3064,-0.303,-0.304,-0.3085,-0.3002,-0.3066,-0.299,-0.2947,-0.293,-0.2822,-0.2742,-0.2367,-0.2303,-0.2308,-0.2696,-0.2699,-0.2701,0,-0.2951,-0.304,-0.2973,-0.2974,-0.2992,-0.2985,-0.3001,-0.3007,-0.2998,-0.2934,-0.2879,-0.2879,-0.2804,-0.2782,-0.2781,-0.2841,-0.2643,-0.2668,-0.2522,-0.2512,-0.2348,-0.2328,-0.2228,-0.2575,-0.2576,-0.2577,-0.2578,0,-0.2805,-0.2733,-0.2822,-0.2725,-0.2659,-0.2736,-0.2661,-0.2696,-0.2711,-0.2677,-0.2743,-0.2695,-0.2734,-0.2663,-0.2672,-0.2535,-0.2525,-0.2516,-0.2431,-0.2376,-0.2363,-0.2295,-0.2351,-0.2565,-0.2567,-0.257,-0.2572,0,-0.2472,-0.2542,-0.2457,-0.2494,-0.2504,-0.2416,-0.2505,-0.2455,-0.249,-0.2444,-0.2422,-0.2482,-0.2403,-0.2414,-0.2315,-0.2331,-0.2182,-0.2176,-0.2101,-0.2018,-0.1917,-0.1982,-0.1785,-0.1733,-0.1921,-0.1917,-0.1914,0,-0.2287,-0.2205,-0.2254,-0.2239,-0.2257,-0.2207,-0.2215,-0.2304,-0.2305,-0.2339,-0.2303,-0.2228,-0.2196,-0.2016,-0.1995,-0.1871,-0.1975,-0.1726,-0.1871,-0.1885,-0.1894,-0.1969,-0.1947,-0.1649,-0.1644,-0.164,-0.1637,0,-0.1982,-0.2038,-0.2003,-0.1986,-0.1976,-0.1988,-0.2008,-0.1985,-0.2103,-0.2073,-0.2056,-0.2014,-0.1895,-0.1765,-0.1636,-0.1595,-0.1704,-0.1637,-0.1661,-0.1691,-0.1752,-0.1667,-0.1868,-0.1601,-0.1604,-0.1607,-0.1609,-0.161,-0.1829,-0.1791,-0.1809,-0.178,-0.1787,-0.1782,-0.1726,-0.1789,-0.1759,-0.1699,-0.176,-0.1573,-0.1591,-0.1407,-0.137,-0.1295,-0.1404,-0.1295,-0.1362,-0.1428,-0.1442,-0.1564,-0.1226,-0.1228,-0.1229,-0.123,-0.1231,0,-0.1665,-0.1658,-0.1626,-0.1602,-0.1555,-0.1614,-0.1612,-0.1549,-0.1481,-0.1389,-0.1296,-0.1074,-0.1045,-0.1077,-0.1118,-0.1067,-0.108,-0.1057,-0.1157,-0.114,-0.1208,-0.1268,-0.0916,-0.0916,-0.0916,-0.0916,-0.0916,-0.0916,-0.1587,-0.1518,-0.1512,-0.139,-0.1369,-0.1264,-0.1231,-0.1165,-0.1067,-0.0799,-0.0554,-0.0413,-0.0622,-0.1002,-0.1087,-0.103,-0.1049,-0.0984,-0.1041,-0.1139,-0.1169,-0.1198,-0.1267,-0.092,-0.092,-0.0919,-0.092,-0.092]},{"header":{"parameterUnit":"m.s-1","parameterCategory":2,"la1":30.2991,"la2":30.254,"lo1":-89.0895,"lo2":-89.0444,"dy":0.0017,"dx":0.0017,"nx":28,"ny":28,"refTime":"2024-08-16T03:00:00:Z","depth":"0","parameterNumber":3,"parameterNumberName":"V-component_of_CURRENTS"},"data":[0,0,0,0,0,0,0,0,0,0,0,0,0,0,0,0,0,0,0,0,0,0,0,0,0,0,0,0,0,0,0,0,0,0,0,0,0,0,0,0,0,0,0,0,0,0,0,0,0,0,0,0,0,0,0,0,0,0,-0.0342,-0.0342,0,-0.0357,-0.0358,-0.0358,-0.0313,-0.0312,-0.031,-0.0309,-0.0277,-0.0277,-0.0278,0,0,0,0,0,0,0,0,0,0,0,0,0,-0.0254,-0.0256,-0.0342,-0.0342,-0.0342,-0.0357,-0.0358,-0.0358,-0.0314,-0.0312,-0.031,-0.0308,-0.0276,-0.0277,-0.0278,0,0,0,0,0,0,0,0,0,0,0,0,0,-0.0284,-0.0257,-0.0342,-0.0321,-0.0319,-0.0357,-0.0358,-0.0358,-0.0314,-0.0312,-0.031,-0.0308,-0.0276,-0.0277,-0.0278,-0.0326,0,0,-0.028,-0.028,0,0,0,0,0,0,0,0,-0.0283,-0.0288,-0.0324,-0.0323,-0.0321,-0.033,-0.0315,-0.0345,-0.0314,-0.0317,-0.0309,-0.0306,-0.0291,-0.0291,-0.03,-0.0324,-0.0323,-0.028,-0.028,-0.0281,-0.0281,0,0,0,0,0,0,0,-0.0281,-0.0287,-0.0349,-0.0324,-0.0322,-0.0304,-0.0307,-0.0321,-0.0316,-0.0316,-0.0313,-0.0314,-0.029,-0.03,-0.0299,-0.0322,-0.028,-0.0281,-0.0281,-0.0281,-0.0391,-0.0394,0,0,0,0,0,0,-0.0281,-0.0285,-0.0348,-0.0349,-0.0295,-0.0308,-0.031,-0.033,-0.0317,-0.0313,-0.0316,-0.0312,-0.03,-0.0298,-0.0298,-0.0348,-0.0281,-0.0281,-0.0282,-0.0389,-0.0392,-0.0395,0,0,0,0,0,0,-0.028,-0.0288,-0.0348,-0.0315,-0.0321,-0.0312,-0.0334,-0.0332,-0.034,-0.0317,-0.0311,-0.0327,-0.0298,-0.0297,-0.0321,-0.0346,-0.0282,-0.0282,-0.0386,-0.039,-0.0393,-0.0452,0,0,0,0,0,0,-0.0278,-0.0288,-0.0308,-0.0316,-0.0323,-0.0389,-0.0336,-0.0334,-0.0344,-0.0339,-0.0325,-0.0319,-0.0296,-0.0321,-0.0322,-0.0346,-0.0283,-0.0383,-0.0388,-0.0392,-0.0447,-0.0457,-0.0466,0,0,0,0,0,-0.0275,-0.0328,-0.0309,-0.0317,-0.0351,-0.0392,-0.0395,-0.0379,-0.0347,-0.0374,-0.0356,-0.032,-0.0351,-0.0324,-0.0325,-0.0349,-0.0381,-0.0386,-0.0392,-0.0443,-0.0455,-0.0466,0,0,0,0,0,0,-0.0304,-0.0328,-0.0308,-0.0365,-0.0378,-0.0384,-0.0412,-0.0391,-0.0401,-0.0392,-0.0353,-0.035,-0.0387,-0.037,-0.034,-0.0399,-0.036,-0.0366,-0.0399,-0.041,-0.042,-0.0383,-0.0284,0,0,0,0,0,-0.0319,-0.0361,-0.0369,-0.0413,-0.0426,-0.0416,-0.0429,-0.042,-0.0425,-0.0426,-0.0412,-0.0405,-0.0416,-0.0411,-0.0429,-0.0457,-0.0387,-0.0476,-0.0485,-0.0493,-0.0468,-0.0397,-0.0395,-0.0413,-0.0413,-0.0413,0,0,-0.0341,-0.0358,-0.0381,-0.042,-0.0429,-0.0468,-0.0421,-0.0458,-0.0473,-0.0423,-0.0452,-0.045,-0.0437,-0.0472,-0.0485,-0.0453,-0.0457,-0.05,-0.0507,-0.0476,-0.0402,-0.0399,-0.0397,-0.0417,-0.0416,-0.0415,0,0,-0.0418,-0.0424,-0.0486,-0.0502,-0.0526,-0.0521,-0.0533,-0.0547,-0.0537,-0.0572,-0.0535,-0.0537,-0.0568,-0.0543,-0.0536,-0.0611,-0.0523,-0.0633,-0.0631,-0.0564,-0.0559,-0.0555,-0.0468,-0.0455,-0.062,-0.062,-0.062,0,-0.0445,-0.0499,-0.051,-0.0566,-0.0562,-0.0547,-0.0584,-0.0598,-0.0612,-0.0584,-0.0595,-0.059,-0.0594,-0.0576,-0.0609,-0.0627,-0.0564,-0.0583,-0.0569,-0.0564,-0.0558,-0.0469,-0.0454,-0.0624,-0.0623,-0.0623,-0.0623,0,-0.0561,-0.0588,-0.0628,-0.0675,-0.0688,-0.0719,-0.0718,-0.0729,-0.0709,-0.0688,-0.068,-0.0681,-0.0648,-0.0677,-0.067,-0.0638,-0.0599,-0.0599,-0.0526,-0.0559,-0.0465,-0.0448,-0.0629,-0.0627,-0.0626,-0.0626,0,0,-0.0653,-0.0695,-0.0705,-0.0695,-0.0726,-0.0739,-0.0769,-0.0751,-0.0727,-0.0747,-0.0699,-0.0734,-0.0689,-0.0679,-0.0662,-0.0617,-0.0549,-0.0593,-0.0588,-0.0479,-0.0373,-0.0315,-0.029,-0.0539,-0.0536,-0.0534,-0.0322,0,-0.0722,-0.0795,-0.0803,-0.0836,-0.085,-0.0818,-0.0828,-0.081,-0.0786,-0.0755,-0.0713,-0.0696,-0.0701,-0.0683,-0.0637,-0.0583,-0.0508,-0.0605,-0.0379,-0.0371,-0.0293,-0.027,-0.021,-0.0013,-0.0305,-0.0302,-0.03,0,-0.0826,-0.0838,-0.0877,-0.0836,-0.084,-0.0864,-0.0804,-0.0814,-0.0767,-0.0742,-0.0691,-0.0662,-0.0602,-0.0616,-0.0469,-0.0528,-0.0444,-0.0396,-0.0386,-0.0289,-0.0282,-0.003,0.0029,0.0178,-0.0273,-0.0275,-0.0277,0,-0.0838,-0.0876,-0.0877,-0.0877,-0.0866,-0.0852,-0.0838,-0.08,-0.0785,-0.0721,-0.0699,-0.0609,-0.0567,-0.0464,-0.0371,-0.0409,-0.0197,-0.0231,-0.0081,-0.0075,0.0045,0.0057,0.0305,-0.0092,-0.0092,-0.0093,-0.0094,0,-0.0878,-0.088,-0.088,-0.088,-0.0874,-0.0848,-0.0833,-0.081,-0.0767,-0.0743,-0.0682,-0.0634,-0.053,-0.0412,-0.0325,-0.0134,-0.014,-0.0047,-0.0008,0.0021,0.0028,0.0217,0.0267,-0.0085,-0.0087,-0.0088,-0.009,0,-0.0894,-0.0897,-0.0905,-0.0887,-0.0887,-0.0881,-0.0869,-0.086,-0.0802,-0.077,-0.0751,-0.0633,-0.0466,-0.0334,-0.0148,-0.0062,0.0214,0.0172,0.0208,0.0247,0.0493,0.0535,0.0837,0.0942,0.0377,0.038,0.0382,0,-0.0901,-0.091,-0.0927,-0.0945,-0.0944,-0.0938,-0.0948,-0.09,-0.089,-0.0769,-0.0753,-0.0575,-0.0425,-0.0104,0.0075,0.031,0.0384,0.049,0.0417,0.0557,0.0633,0.064,0.0706,0.0558,0.0561,0.0564,0.0567,0,-0.0908,-0.093,-0.094,-0.0987,-0.101,-0.1031,-0.1026,-0.1019,-0.0948,-0.0862,-0.0697,-0.0546,-0.0226,0.0085,0.0371,0.0482,0.0622,0.0557,0.0704,0.0814,0.0842,0.0944,0.0373,0.0593,0.0591,0.0589,0.0587,0.0586,-0.0921,-0.0949,-0.0985,-0.1026,-0.1065,-0.1101,-0.1099,-0.1039,-0.0965,-0.0758,-0.0619,-0.0261,0.0111,0.0535,0.067,0.0948,0.0869,0.1014,0.1063,0.1065,0.1144,0.0638,0.0884,0.0883,0.0882,0.0881,0.0881,0,-0.0925,-0.0968,-0.1018,-0.1074,-0.1124,-0.1133,-0.1137,-0.1078,-0.0936,-0.0631,-0.0359,0.0269,0.0634,0.0939,0.1278,0.1444,0.1456,0.1509,0.1543,0.1591,0.1168,0.115,0.1462,0.1462,0.1462,0.1462,0.1462,0.1461,-0.0929,-0.0982,-0.1018,-0.1105,-0.1144,-0.1162,-0.1153,-0.1,-0.077,-0.0217,0.0273,0.0652,0.1071,0.1542,0.1853,0.1882,0.2043,0.2016,0.2096,0.1795,0.1751,0.1709,0.1707,0.213,0.2131,0.2505,0.2509,0.2512]}],[{"header":{"parameterUnit":"m.s-1","parameterCategory":2,"la1":30.2991,"la2":30.254,"lo1":-89.0895,"lo2":-89.0444,"dy":0.0017,"dx":0.0017,"nx":28,"ny":28,"refTime":"2024-08-16T03:00:00:Z","depth":"2","parameterNumber":2,"parameterNumberName":"U-component_of_CURRENTS"},"data":[0,0,0,0,0,0,0,0,0,0,0,0,0,0,0,0,0,0,0,0,0,0,0,0,0,0,0,0,0,0,0,0,0,0,0,0,0,0,0,0,0,0,0,0,0,0,0,0,0,0,0,0,0,0,0,0,0,0,-0.2171,-0.2172,0,-0.2307,-0.2308,-0.2309,-0.2352,-0.2352,-0.2352,-0.2351,-0.2521,-0.2526,-0.2531,0,0,0,0,0,0,0,0,0,0,0,0,0,-0.2042,-0.2043,-0.217,-0.2172,-0.2174,-0.2306,-0.2308,-0.231,-0.2352,-0.2352,-0.2351,-0.2351,-0.2519,-0.2525,-0.2531,0,0,0,0,0,0,0,0,0,0,0,0,0,-0.2127,-0.2043,-0.217,-0.2213,-0.2219,-0.2306,-0.2308,-0.231,-0.2353,-0.2352,-0.2351,-0.2351,-0.2518,-0.2525,-0.2532,-0.259,0,0,-0.2555,-0.2558,0,0,0,0,0,0,0,0,-0.2122,-0.2131,-0.2205,-0.221,-0.2217,-0.2314,-0.2325,-0.2406,-0.2353,-0.2299,-0.2351,-0.235,-0.2457,-0.2469,-0.2492,-0.2598,-0.2605,-0.2555,-0.256,-0.2563,-0.2565,0,0,0,0,0,0,0,-0.2116,-0.2126,-0.2222,-0.2207,-0.2214,-0.2258,-0.2268,-0.2341,-0.2379,-0.2304,-0.2308,-0.2327,-0.246,-0.2485,-0.2497,-0.2608,-0.2555,-0.2562,-0.2566,-0.2569,-0.2775,-0.2776,0,0,0,0,0,0,-0.21,-0.212,-0.2218,-0.2226,-0.2169,-0.2261,-0.2272,-0.2281,-0.2378,-0.2392,-0.2327,-0.2329,-0.2473,-0.2488,-0.2503,-0.2561,-0.2563,-0.257,-0.2574,-0.2774,-0.2775,-0.2776,0,0,0,0,0,0,-0.2096,-0.2107,-0.2212,-0.2179,-0.2196,-0.2263,-0.2274,-0.2284,-0.2333,-0.2395,-0.241,-0.2367,-0.2473,-0.2493,-0.2585,-0.2568,-0.2573,-0.258,-0.2773,-0.2774,-0.2776,-0.2687,0,0,0,0,0,0,-0.2092,-0.2104,-0.2112,-0.2177,-0.2197,-0.2251,-0.2275,-0.2288,-0.2345,-0.2349,-0.2434,-0.2448,-0.2474,-0.2574,-0.2592,-0.2578,-0.2585,-0.2771,-0.2773,-0.2775,-0.2688,-0.2685,-0.2682,0,0,0,0,0,-0.2087,-0.2104,-0.2111,-0.2123,-0.2202,-0.2252,-0.2265,-0.231,-0.2348,-0.2356,-0.2433,-0.2446,-0.2598,-0.2582,-0.2603,-0.259,-0.277,-0.2773,-0.2775,-0.269,-0.2686,-0.2682,0,0,0,0,0,0,-0.2063,-0.2112,-0.2121,-0.2154,-0.219,-0.2259,-0.2281,-0.2329,-0.2399,-0.2415,-0.2481,-0.2499,-0.2569,-0.261,-0.2591,-0.2658,-0.2679,-0.2686,-0.2607,-0.2604,-0.2601,-0.2538,-0.2592,0,0,0,0,0,-0.2057,-0.207,-0.2124,-0.2146,-0.2163,-0.2229,-0.2263,-0.2298,-0.2368,-0.2399,-0.2469,-0.254,-0.2594,-0.2624,-0.2686,-0.2739,-0.2725,-0.2741,-0.2738,-0.2735,-0.2701,-0.2667,-0.2655,-0.2784,-0.2784,-0.2784,0,0,-0.2052,-0.2082,-0.209,-0.2139,-0.2172,-0.2207,-0.2247,-0.2297,-0.2336,-0.241,-0.2495,-0.2549,-0.2614,-0.2658,-0.269,-0.2688,-0.2698,-0.2738,-0.2734,-0.2701,-0.2668,-0.2654,-0.2643,-0.2785,-0.2785,-0.2785,0,0,-0.2055,-0.2072,-0.2086,-0.2115,-0.2168,-0.2204,-0.2224,-0.2307,-0.2343,-0.2436,-0.2483,-0.2518,-0.2647,-0.2642,-0.2667,-0.2692,-0.2695,-0.2731,-0.2649,-0.2617,-0.2604,-0.2593,-0.2571,-0.2558,-0.2714,-0.2713,-0.2713,0,-0.2049,-0.2069,-0.2099,-0.2126,-0.2144,-0.2205,-0.2228,-0.2281,-0.239,-0.2406,-0.2454,-0.2566,-0.262,-0.2618,-0.2616,-0.2675,-0.267,-0.265,-0.2605,-0.2594,-0.2583,-0.2563,-0.255,-0.2709,-0.271,-0.271,-0.2711,0,-0.2065,-0.208,-0.209,-0.2128,-0.2156,-0.218,-0.2243,-0.2288,-0.2354,-0.2394,-0.2437,-0.2497,-0.2541,-0.2562,-0.2601,-0.2551,-0.2578,-0.2611,-0.2595,-0.2563,-0.2547,-0.2534,-0.2704,-0.2705,-0.2706,-0.2707,0,0,-0.2045,-0.2088,-0.2092,-0.2105,-0.2152,-0.2186,-0.2223,-0.2256,-0.229,-0.2352,-0.2369,-0.2413,-0.2424,-0.245,-0.2483,-0.2439,-0.237,-0.2485,-0.2486,-0.2428,-0.2304,-0.2231,-0.2211,-0.2396,-0.2393,-0.2391,-0.2324,0,-0.2038,-0.2077,-0.2095,-0.2127,-0.2147,-0.2179,-0.2215,-0.2255,-0.23,-0.2341,-0.2333,-0.2383,-0.2391,-0.2416,-0.2362,-0.2404,-0.2333,-0.2385,-0.2374,-0.2373,-0.2281,-0.2192,-0.205,-0.1969,-0.2312,-0.231,-0.2309,0,-0.2041,-0.2066,-0.2086,-0.2125,-0.2135,-0.2163,-0.2197,-0.2239,-0.2268,-0.2303,-0.2283,-0.2322,-0.2276,-0.2304,-0.2241,-0.2283,-0.2262,-0.2262,-0.2261,-0.2202,-0.2273,-0.206,-0.1934,-0.2288,-0.229,-0.2292,-0.2293,0,-0.2015,-0.2058,-0.2067,-0.208,-0.2138,-0.2144,-0.2175,-0.2214,-0.2237,-0.2265,-0.2282,-0.225,-0.2257,-0.2209,-0.2201,-0.2232,-0.213,-0.2188,-0.2076,-0.2073,-0.1949,-0.1938,-0.208,-0.208,-0.208,-0.208,-0.208,0,-0.1993,-0.2004,-0.2062,-0.207,-0.2085,-0.2139,-0.2153,-0.2184,-0.2218,-0.2221,-0.225,-0.2237,-0.2233,-0.2191,-0.217,-0.2069,-0.2097,-0.2013,-0.2025,-0.192,-0.1908,-0.2193,-0.2207,-0.2078,-0.2078,-0.2079,-0.2079,0,-0.1943,-0.1983,-0.1995,-0.205,-0.2066,-0.2077,-0.212,-0.2135,-0.2189,-0.2189,-0.2194,-0.2216,-0.2161,-0.2127,-0.2071,-0.2027,-0.1957,-0.1904,-0.1782,-0.1777,-0.1935,-0.1946,-0.1778,-0.1775,-0.1771,-0.1769,-0.1767,0,-0.191,-0.1914,-0.1958,-0.1957,-0.1969,-0.2001,-0.2014,-0.209,-0.2102,-0.2159,-0.2143,-0.2119,-0.2052,-0.1939,-0.1852,-0.1748,-0.1833,-0.1579,-0.1585,-0.1862,-0.1891,-0.1908,-0.1923,-0.1406,-0.1401,-0.1397,-0.1394,0,-0.1823,-0.1839,-0.1846,-0.1851,-0.1861,-0.1879,-0.1911,-0.1925,-0.2009,-0.2019,-0.2012,-0.1971,-0.186,-0.1683,-0.1559,-0.1492,-0.1592,-0.1492,-0.1779,-0.1508,-0.1505,-0.1537,-0.1565,-0.1357,-0.1361,-0.1364,-0.1365,-0.1367,-0.1732,-0.1712,-0.1722,-0.1714,-0.1731,-0.1737,-0.1705,-0.176,-0.1764,-0.1761,-0.1834,-0.173,-0.1666,-0.1392,-0.1282,-0.1199,-0.1314,-0.1276,-0.1291,-0.1309,-0.1281,-0.1273,-0.1077,-0.1079,-0.108,-0.1082,-0.1083,0,-0.1605,-0.1597,-0.1583,-0.1571,-0.1538,-0.1595,-0.1608,-0.1555,-0.1512,-0.1557,-0.1536,-0.1343,-0.1205,-0.114,-0.0944,-0.0894,-0.0906,-0.0866,-0.0895,-0.093,-0.0962,-0.0919,-0.0617,-0.0616,-0.0615,-0.0614,0,0,-0.1536,-0.1479,-0.1477,-0.1379,-0.1367,-0.1278,-0.1256,-0.1201,-0.1193,-0.1132,-0.1099,-0.1202,-0.1144,-0.0922,-0.0829,-0.0696,-0.0818,-0.0655,-0.1026,-0.1097,-0.1128,-0.1186,-0.1156,0,0,0,0,0]},{"header":{"parameterUnit":"m.s-1","parameterCategory":2,"la1":30.2991,"la2":30.254,"lo1":-89.0895,"lo2":-89.0444,"dy":0.0017,"dx":0.0017,"nx":28,"ny":28,"refTime":"2024-08-16T03:00:00:Z","depth":"2","parameterNumber":3,"parameterNumberName":"V-component_of_CURRENTS"},"data":[0,0,0,0,0,0,0,0,0,0,0,0,0,0,0,0,0,0,0,0,0,0,0,0,0,0,0,0,0,0,0,0,0,0,0,0,0,0,0,0,0,0,0,0,0,0,0,0,0,0,0,0,0,0,0,0,0,0,-0.0401,-0.04,0,-0.0343,-0.0343,-0.0343,-0.0277,-0.0275,-0.0274,-0.0273,0.0006,0.0012,0.0019,0,0,0,0,0,0,0,0,0,0,0,0,0,-0.0463,-0.0462,-0.0402,-0.04,-0.0399,-0.0343,-0.0343,-0.0343,-0.0277,-0.0275,-0.0273,-0.0272,0.0004,0.0012,0.0019,0,0,0,0,0,0,0,0,0,0,0,0,0,-0.0428,-0.0462,-0.0402,-0.0357,-0.0352,-0.0343,-0.0343,-0.0342,-0.0277,-0.0275,-0.0273,-0.0271,0.0002,0.0011,0.002,0.0036,0,0,0.0048,0.0052,0,0,0,0,0,0,0,0,-0.043,-0.0426,-0.0364,-0.036,-0.0354,-0.0311,-0.0262,-0.0203,-0.0278,-0.031,-0.0272,-0.027,-0.0078,-0.0062,-0.0065,0.0049,0.0061,0.0049,0.0055,0.0059,0.0061,0,0,0,0,0,0,0,-0.0432,-0.0428,-0.0383,-0.0363,-0.0357,-0.0341,-0.0335,-0.0252,-0.0205,-0.0307,-0.0301,-0.0288,-0.0074,-0.0075,-0.0057,0.0065,0.0049,0.0057,0.0063,0.0066,0.0329,0.0331,0,0,0,0,0,0,-0.0433,-0.0431,-0.0385,-0.0381,-0.0383,-0.0342,-0.0334,-0.0331,-0.0211,-0.0191,-0.029,-0.0285,-0.0091,-0.0068,-0.0047,0.006,0.0059,0.0067,0.0072,0.0328,0.033,0.0331,0,0,0,0,0,0,-0.0435,-0.043,-0.0387,-0.04,-0.0393,-0.0342,-0.0339,-0.033,-0.031,-0.02,-0.0176,-0.0275,-0.0089,-0.006,0.0044,0.0069,0.0071,0.008,0.0326,0.0329,0.0331,0.0224,0,0,0,0,0,0,-0.0437,-0.0431,-0.0438,-0.0401,-0.0392,-0.0373,-0.034,-0.0331,-0.0304,-0.0297,-0.0179,-0.0153,-0.0085,0.003,0.0053,0.0082,0.0087,0.0324,0.0327,0.033,0.0226,0.0223,0.022,0,0,0,0,0,-0.044,-0.0448,-0.0439,-0.0433,-0.04,-0.0372,-0.0367,-0.0327,-0.0306,-0.0301,-0.0216,-0.0156,0.0065,0.0038,0.0065,0.0097,0.0323,0.0326,0.033,0.0227,0.0223,0.022,0,0,0,0,0,0,-0.0472,-0.0441,-0.043,-0.0428,-0.0399,-0.0359,-0.0355,-0.0327,-0.0265,-0.025,-0.0146,-0.0114,-0.001,0.0059,0.0026,0.0185,0.0208,0.0217,0.0121,0.0119,0.0115,0.0071,0.0095,0,0,0,0,0,-0.0487,-0.049,-0.045,-0.045,-0.0438,-0.0399,-0.0385,-0.0357,-0.0296,-0.0269,-0.0183,-0.008,0.0018,0.0079,0.0169,0.0248,0.0279,0.0293,0.029,0.0287,0.0272,0.0311,0.0308,0.0342,0.0342,0.0342,0,0,-0.0497,-0.0483,-0.0482,-0.0458,-0.0438,-0.0422,-0.0386,-0.0365,-0.0339,-0.0243,-0.0176,-0.0089,0.0037,0.0125,0.0179,0.0191,0.0297,0.0291,0.0286,0.0274,0.0314,0.031,0.0306,0.0344,0.0344,0.0344,0,0,-0.0521,-0.051,-0.0519,-0.0498,-0.0468,-0.0443,-0.0433,-0.0385,-0.0351,-0.0288,-0.02,-0.0109,0.0032,0.0117,0.0183,0.022,0.0276,0.0269,0.0219,0.0257,0.0253,0.025,0.0284,0.0285,0.0269,0.0268,0.0268,0,-0.0536,-0.054,-0.0516,-0.0514,-0.0497,-0.045,-0.0444,-0.0408,-0.0329,-0.0297,-0.027,-0.0083,0.0024,0.0134,0.0151,0.0211,0.0234,0.0215,0.0246,0.0244,0.0242,0.0278,0.028,0.0264,0.0264,0.0265,0.0265,0,-0.0561,-0.0559,-0.0561,-0.0545,-0.0527,-0.0515,-0.046,-0.0431,-0.0386,-0.0342,-0.0241,-0.0126,-0.0015,0.0043,0.0112,0.0175,0.0196,0.0228,0.0237,0.0231,0.0272,0.0275,0.0257,0.0259,0.026,0.0261,0,0,-0.0603,-0.0584,-0.0584,-0.0582,-0.0542,-0.053,-0.0492,-0.0445,-0.0416,-0.0345,-0.03,-0.015,-0.0103,-0.0026,0.0072,0.0109,0.013,0.0155,0.016,0.0156,0.0203,0.0242,0.025,0.0154,0.0155,0.0155,0.0233,0,-0.0629,-0.0643,-0.0618,-0.0615,-0.0613,-0.0563,-0.0532,-0.0482,-0.0425,-0.0369,-0.0268,-0.018,-0.012,-0.0064,-0.0023,0.0107,0.0136,0.0106,0.0239,0.0243,0.025,0.0255,0.0244,0.0315,0.0237,0.0238,0.0238,0,-0.0661,-0.0666,-0.0677,-0.0653,-0.0647,-0.0636,-0.0591,-0.0554,-0.0466,-0.042,-0.0348,-0.0261,-0.0161,-0.0124,0.0022,-0.0004,0.0082,0.0157,0.0162,0.0234,0.0289,0.0314,0.0325,0.0245,0.0245,0.0244,0.0244,0,-0.0712,-0.0703,-0.0719,-0.071,-0.0676,-0.067,-0.0647,-0.0576,-0.0543,-0.0454,-0.0424,-0.0309,-0.0234,-0.0139,0.0024,0.0021,0.0166,0.019,0.0297,0.0301,0.0338,0.0345,0.0261,0.0261,0.0261,0.0261,0.026,0,-0.0749,-0.0757,-0.0748,-0.0754,-0.0766,-0.0722,-0.0712,-0.067,-0.0601,-0.0559,-0.0459,-0.0393,-0.024,-0.0125,-0.0003,0.0161,0.0146,0.0282,0.0322,0.0305,0.0308,0.0287,0.0289,0.0264,0.0263,0.0262,0.0262,0,-0.0793,-0.0788,-0.0805,-0.0793,-0.0793,-0.0802,-0.0771,-0.0757,-0.0687,-0.0631,-0.0605,-0.0453,-0.0294,-0.0141,0.005,0.0143,0.029,0.035,0.0319,0.0354,0.0402,0.0398,0.0465,0.0467,0.0468,0.047,0.0471,0,-0.0814,-0.0831,-0.0849,-0.0868,-0.0865,-0.087,-0.0873,-0.0813,-0.0786,-0.0654,-0.0628,-0.0461,-0.0309,-0.0032,0.0161,0.0363,0.0354,0.0453,0.045,0.0389,0.0422,0.0415,0.0409,0.0461,0.0462,0.0463,0.0464,0,-0.0847,-0.086,-0.0877,-0.0925,-0.0946,-0.096,-0.0951,-0.0937,-0.0847,-0.0773,-0.0623,-0.0487,-0.0203,0.005,0.0297,0.0405,0.0417,0.0477,0.043,0.041,0.0393,0.0422,0.0415,0.0471,0.0471,0.047,0.047,0.0469,-0.0868,-0.0898,-0.0931,-0.0972,-0.1005,-0.1028,-0.1021,-0.0982,-0.0918,-0.0768,-0.0643,-0.0416,-0.0176,0.0203,0.0386,0.0534,0.0525,0.0554,0.0549,0.0543,0.0528,0.0514,0.0612,0.0612,0.0612,0.0612,0.0612,0,-0.0883,-0.0921,-0.097,-0.102,-0.1063,-0.1067,-0.1053,-0.1008,-0.0917,-0.0755,-0.0589,-0.0312,-0.0023,0.0217,0.0483,0.0636,0.0608,0.0639,0.0582,0.0574,0.0568,0.0551,0.0643,0.0644,0.0644,0.0645,0,0,-0.089,-0.0941,-0.0973,-0.1051,-0.1086,-0.1103,-0.1083,-0.0998,-0.087,-0.0678,-0.0504,-0.0305,0.0007,0.019,0.039,0.0537,0.0506,0.0535,0.0495,0.0398,0.039,0.0506,0.0471,0,0,0,0,0]}],[{"header":{"parameterUnit":"m.s-1","parameterCategory":2,"la1":30.2991,"la2":30.254,"lo1":-89.0895,"lo2":-89.0444,"dy":0.0017,"dx":0.0017,"nx":28,"ny":28,"refTime":"2024-08-16T03:00:00:Z","depth":"4","parameterNumber":2,"parameterNumberName":"U-component_of_CURRENTS"},"data":[0,0,0,0,0,0,0,0,0,0,0,0,0,0,0,0,0,0,0,0,0,0,0,0,0,0,0,0,0,0,0,0,0,0,0,0,0,0,0,0,0,0,0,0,0,0,0,0,0,0,0,0,0,0,0,0,0,0,-0.1428,-0.1428,0,-0.1441,-0.1441,-0.1441,-0.1434,-0.1434,-0.1434,-0.1434,-0.1503,-0.1505,-0.1507,0,0,0,0,0,0,0,0,0,0,0,0,0,-0.1392,-0.1393,-0.1428,-0.1428,-0.1428,-0.1441,-0.1441,-0.1441,-0.1434,-0.1434,-0.1434,-0.1433,-0.1503,-0.1505,-0.1508,0,0,0,0,0,0,0,0,0,0,0,0,0,-0.1405,-0.1393,-0.1428,-0.1428,-0.1428,-0.1441,-0.1441,-0.1441,-0.1434,-0.1434,-0.1434,-0.1433,-0.1502,-0.1505,-0.1508,-0.1533,0,0,-0.1517,-0.1519,0,0,0,0,0,0,0,0,-0.1405,-0.1406,-0.1427,-0.1428,-0.1428,-0.1437,-0.1454,-0.1475,-0.1434,-0.143,-0.1434,-0.1433,-0.1488,-0.1492,-0.1492,-0.1536,-0.1539,-0.1518,-0.1519,-0.1521,-0.1522,0,0,0,0,0,0,0,-0.1404,-0.1406,-0.1431,-0.1428,-0.1428,-0.1425,-0.1427,-0.1457,-0.146,-0.1431,-0.1431,-0.1434,-0.1488,-0.1489,-0.1494,-0.154,-0.1517,-0.152,-0.1522,-0.1523,-0.1645,-0.1646,0,0,0,0,0,0,-0.1406,-0.1405,-0.1431,-0.1432,-0.1417,-0.1426,-0.1428,-0.1433,-0.1459,-0.1462,-0.1435,-0.1434,-0.1484,-0.149,-0.1496,-0.1553,-0.1521,-0.1524,-0.1525,-0.1644,-0.1645,-0.1647,0,0,0,0,0,0,-0.1405,-0.1408,-0.143,-0.142,-0.1423,-0.1427,-0.1433,-0.1433,-0.1456,-0.1462,-0.1466,-0.146,-0.1484,-0.1492,-0.1541,-0.1555,-0.1525,-0.1528,-0.1642,-0.1644,-0.1646,-0.165,0,0,0,0,0,0,-0.1404,-0.1408,-0.1422,-0.142,-0.1423,-0.1447,-0.1434,-0.1434,-0.1459,-0.1459,-0.1485,-0.1489,-0.1484,-0.1537,-0.1544,-0.1558,-0.153,-0.164,-0.1643,-0.1645,-0.1648,-0.1652,-0.1655,0,0,0,0,0,-0.1403,-0.1415,-0.1423,-0.1426,-0.144,-0.1448,-0.1449,-0.145,-0.1461,-0.1471,-0.1494,-0.1489,-0.1558,-0.1541,-0.1549,-0.1564,-0.1639,-0.1642,-0.1645,-0.1647,-0.1651,-0.1655,0,0,0,0,0,0,-0.1406,-0.1416,-0.1424,-0.1439,-0.145,-0.1447,-0.1461,-0.147,-0.1496,-0.1507,-0.1513,-0.152,-0.1559,-0.1574,-0.1555,-0.1609,-0.1596,-0.1601,-0.1594,-0.1599,-0.1603,-0.1603,-0.1533,0,0,0,0,0,-0.1415,-0.143,-0.1437,-0.1454,-0.1461,-0.1471,-0.1481,-0.1485,-0.1503,-0.1514,-0.1535,-0.1561,-0.1576,-0.1599,-0.1614,-0.1659,-0.1657,-0.1675,-0.1678,-0.1681,-0.1689,-0.1702,-0.1707,-0.1657,-0.1657,-0.1657,0,0,-0.1424,-0.1431,-0.1442,-0.1457,-0.1467,-0.1481,-0.1476,-0.1498,-0.1514,-0.1521,-0.1563,-0.1576,-0.1591,-0.1621,-0.1642,-0.1639,-0.1692,-0.1685,-0.1687,-0.1694,-0.1706,-0.171,-0.1714,-0.1659,-0.1659,-0.1658,0,0,-0.1438,-0.1455,-0.147,-0.1482,-0.1502,-0.1506,-0.1522,-0.1539,-0.155,-0.1593,-0.1591,-0.1618,-0.1664,-0.1661,-0.1668,-0.1712,-0.1704,-0.1724,-0.175,-0.1763,-0.1766,-0.177,-0.1756,-0.1758,-0.1733,-0.1733,-0.1733,0,-0.1449,-0.1465,-0.1476,-0.1491,-0.1506,-0.1523,-0.1543,-0.1555,-0.159,-0.161,-0.1612,-0.167,-0.1675,-0.1703,-0.1706,-0.1717,-0.1721,-0.1726,-0.1765,-0.1768,-0.1771,-0.1757,-0.1759,-0.1733,-0.1733,-0.1733,-0.1733,0,-0.1465,-0.1488,-0.1498,-0.1523,-0.1542,-0.1562,-0.158,-0.1612,-0.1638,-0.1652,-0.1698,-0.1705,-0.1742,-0.174,-0.1735,-0.1765,-0.1757,-0.1758,-0.1747,-0.1776,-0.1759,-0.1761,-0.1734,-0.1734,-0.1734,-0.1734,0,0,-0.1459,-0.1501,-0.1507,-0.1531,-0.1562,-0.1582,-0.1616,-0.1649,-0.1688,-0.1715,-0.1758,-0.1769,-0.1786,-0.1796,-0.1794,-0.18,-0.1806,-0.1795,-0.1796,-0.1769,-0.1823,-0.1672,-0.166,-0.1819,-0.182,-0.1821,-0.1795,0,-0.1467,-0.1507,-0.1523,-0.157,-0.1592,-0.1623,-0.1657,-0.1696,-0.1729,-0.1775,-0.1783,-0.1821,-0.1803,-0.1826,-0.183,-0.1816,-0.1816,-0.1812,-0.1811,-0.181,-0.1662,-0.1659,-0.1824,-0.1796,-0.1797,-0.1797,-0.1797,0,-0.1465,-0.1497,-0.1543,-0.1605,-0.162,-0.1656,-0.1729,-0.1759,-0.1813,-0.1841,-0.1879,-0.1891,-0.1904,-0.1885,-0.1879,-0.1883,-0.1858,-0.1838,-0.1837,-0.1698,-0.1663,-0.1767,-0.1801,-0.18,-0.18,-0.18,-0.18,0,-0.1449,-0.1507,-0.1551,-0.157,-0.1641,-0.1683,-0.1725,-0.1789,-0.1818,-0.1886,-0.1915,-0.1946,-0.1955,-0.1946,-0.189,-0.1903,-0.1863,-0.1876,-0.1715,-0.1704,-0.1847,-0.1844,-0.1872,-0.1872,-0.1872,-0.1872,-0.1872,0,-0.143,-0.1469,-0.1558,-0.1582,-0.1644,-0.17,-0.1767,-0.1813,-0.1877,-0.1901,-0.1951,-0.1957,-0.1973,-0.1945,-0.1909,-0.1793,-0.1878,-0.171,-0.1686,-0.1848,-0.1845,-0.1847,-0.1844,-0.1871,-0.1871,-0.1872,-0.1872,0,-0.1387,-0.1446,-0.1501,-0.1599,-0.1633,-0.1679,-0.177,-0.1806,-0.1884,-0.1915,-0.1934,-0.1968,-0.1918,-0.1894,-0.1857,-0.1787,-0.1714,-0.1654,-0.1803,-0.1791,-0.1549,-0.1548,-0.1492,-0.1486,-0.1481,-0.1478,-0.1474,0,-0.136,-0.1386,-0.1498,-0.1527,-0.1572,-0.1651,-0.169,-0.179,-0.1814,-0.1891,-0.1882,-0.1877,-0.1871,-0.1685,-0.169,-0.1595,-0.157,-0.1539,-0.1565,-0.1527,-0.1511,-0.1517,-0.1521,-0.1467,-0.1465,-0.1464,-0.1463,0,-0.1295,-0.1349,-0.139,-0.1456,-0.1511,-0.1562,-0.1628,-0.1643,-0.1735,-0.1825,-0.1767,-0.172,-0.1647,-0.1582,-0.1497,-0.1441,-0.1569,-0.149,-0.1501,-0.1525,-0.1496,-0.1486,-0.1496,-0.1447,-0.1449,-0.1451,-0.1451,0,-0.1236,-0.1247,-0.1307,-0.135,-0.1418,-0.1438,-0.1497,-0.1511,-0.155,-0.1642,-0.1614,-0.1597,-0.1629,-0.1499,-0.143,-0.1344,-0.1335,-0.131,-0.1331,-0.1349,-0.1308,-0.1251,-0.1095,0,0,0,0,0,-0.116,-0.1156,-0.119,-0.1228,-0.1293,-0.1326,-0.1428,-0.1489,-0.1593,-0.1504,-0.1555,-0.1475,-0.1368,-0.1365,-0.1239,-0.136,-0.1341,-0.1212,-0.1326,-0.1356,-0.1375,-0.1336,0,0,0,0,0,0,-0.1105,-0.1129,-0.1144,-0.1114,-0.1112,-0.1164,-0.1224,-0.1299,-0.1264,-0.1367,-0.1303,-0.1375,-0.1277,-0.1385,-0.1197,-0.1194,-0.1236,-0.1212,-0.1208,-0.1345,-0.1362,-0.1378,-0.1344,0,0,0,0,0]},{"header":{"parameterUnit":"m.s-1","parameterCategory":2,"la1":30.2991,"la2":30.254,"lo1":-89.0895,"lo2":-89.0444,"dy":0.0017,"dx":0.0017,"nx":28,"ny":28,"refTime":"2024-08-16T03:00:00:Z","depth":"4","parameterNumber":3,"parameterNumberName":"V-component_of_CURRENTS"},"data":[0,0,0,0,0,0,0,0,0,0,0,0,0,0,0,0,0,0,0,0,0,0,0,0,0,0,0,0,0,0,0,0,0,0,0,0,0,0,0,0,0,0,0,0,0,0,0,0,0,0,0,0,0,0,0,0,0,0,-0.0337,-0.0337,0,-0.033,-0.0331,-0.0331,-0.032,-0.0319,-0.0319,-0.0318,-0.0253,-0.0251,-0.025,0,0,0,0,0,0,0,0,0,0,0,0,0,-0.0351,-0.0351,-0.0337,-0.0337,-0.0336,-0.033,-0.0331,-0.0331,-0.032,-0.0319,-0.0319,-0.0318,-0.0253,-0.0252,-0.025,0,0,0,0,0,0,0,0,0,0,0,0,0,-0.0348,-0.0351,-0.0337,-0.0328,-0.0327,-0.033,-0.0331,-0.0331,-0.032,-0.0319,-0.0319,-0.0318,-0.0254,-0.0252,-0.025,-0.0252,0,0,-0.0244,-0.0243,0,0,0,0,0,0,0,0,-0.0348,-0.0348,-0.033,-0.0329,-0.0327,-0.0323,-0.0311,-0.03,-0.032,-0.0326,-0.0318,-0.0318,-0.0269,-0.0266,-0.0271,-0.0249,-0.0246,-0.0244,-0.0242,-0.0242,-0.0241,0,0,0,0,0,0,0,-0.0348,-0.0348,-0.0338,-0.0329,-0.0328,-0.0328,-0.0327,-0.031,-0.0303,-0.0325,-0.0324,-0.0318,-0.0268,-0.0273,-0.0269,-0.0245,-0.0244,-0.0242,-0.0241,-0.024,-0.0207,-0.0208,0,0,0,0,0,0,-0.0343,-0.0348,-0.0338,-0.0337,-0.0333,-0.0328,-0.0327,-0.0327,-0.0304,-0.03,-0.0319,-0.0318,-0.0277,-0.0272,-0.0267,-0.0259,-0.0242,-0.024,-0.0239,-0.0207,-0.0207,-0.0208,0,0,0,0,0,0,-0.0344,-0.0343,-0.0338,-0.034,-0.0339,-0.0328,-0.0329,-0.0327,-0.0332,-0.03,-0.0294,-0.0324,-0.0276,-0.027,-0.0251,-0.0256,-0.0239,-0.0237,-0.0207,-0.0207,-0.0208,-0.0248,0,0,0,0,0,0,-0.0344,-0.0343,-0.0351,-0.034,-0.0338,-0.0342,-0.0329,-0.0328,-0.0328,-0.0327,-0.0302,-0.0295,-0.0275,-0.0254,-0.0249,-0.0253,-0.0236,-0.0206,-0.0207,-0.0207,-0.0247,-0.025,-0.0253,0,0,0,0,0,-0.0345,-0.0356,-0.0352,-0.035,-0.0346,-0.0342,-0.0342,-0.0334,-0.0329,-0.0335,-0.0315,-0.0296,-0.0254,-0.0253,-0.0247,-0.0251,-0.0206,-0.0207,-0.0207,-0.0245,-0.025,-0.0253,0,0,0,0,0,0,-0.0367,-0.0356,-0.035,-0.0358,-0.035,-0.0339,-0.0346,-0.0338,-0.0331,-0.0329,-0.0299,-0.0292,-0.0283,-0.026,-0.0259,-0.0243,-0.0227,-0.0227,-0.0258,-0.0262,-0.0265,-0.0242,-0.0234,0,0,0,0,0,-0.0375,-0.0383,-0.0366,-0.0374,-0.0371,-0.036,-0.036,-0.0353,-0.034,-0.0337,-0.0318,-0.0297,-0.0283,-0.0266,-0.0255,-0.024,-0.0192,-0.0238,-0.0242,-0.0245,-0.0222,-0.0148,-0.0141,-0.021,-0.021,-0.021,0,0,-0.0384,-0.0381,-0.0384,-0.038,-0.0376,-0.0376,-0.036,-0.0361,-0.0361,-0.033,-0.0328,-0.0314,-0.0285,-0.0276,-0.0269,-0.0253,-0.0208,-0.0246,-0.0248,-0.0223,-0.0148,-0.014,-0.0134,-0.0211,-0.021,-0.021,0,0,-0.0407,-0.0405,-0.0417,-0.0411,-0.0404,-0.0396,-0.0396,-0.0385,-0.038,-0.0375,-0.0356,-0.0332,-0.0319,-0.0287,-0.0272,-0.0281,-0.0237,-0.0293,-0.0277,-0.0207,-0.0199,-0.0192,-0.0152,-0.0141,-0.0282,-0.0283,-0.0283,0,-0.042,-0.043,-0.042,-0.0426,-0.0422,-0.0404,-0.041,-0.0404,-0.0389,-0.0375,-0.0378,-0.0334,-0.0317,-0.0277,-0.0286,-0.0286,-0.0249,-0.0267,-0.0209,-0.0201,-0.0193,-0.0152,-0.014,-0.0285,-0.0284,-0.0284,-0.0284,0,-0.0445,-0.0452,-0.0458,-0.0459,-0.0455,-0.0459,-0.044,-0.0437,-0.0429,-0.0409,-0.038,-0.035,-0.0311,-0.0315,-0.0303,-0.0247,-0.0243,-0.0231,-0.0196,-0.0188,-0.0147,-0.0133,-0.0288,-0.0287,-0.0286,-0.0286,0,0,-0.0472,-0.0476,-0.0479,-0.0483,-0.0472,-0.0472,-0.0466,-0.0446,-0.043,-0.0409,-0.0374,-0.0349,-0.0318,-0.0296,-0.0275,-0.0213,-0.0147,-0.02,-0.0195,-0.0155,-0.0009,-0.0042,-0.003,-0.0125,-0.0122,-0.012,-0.0013,0,-0.0495,-0.0518,-0.0508,-0.0522,-0.0529,-0.0504,-0.0498,-0.0474,-0.0448,-0.0411,-0.0356,-0.0325,-0.0315,-0.0298,-0.0232,-0.0173,-0.0107,-0.0178,-0.0025,-0.002,-0.0045,-0.0013,-0.0111,-0.0002,0.0001,0.0004,0.0006,0,-0.0519,-0.0532,-0.0555,-0.055,-0.0549,-0.0554,-0.0528,-0.0518,-0.0454,-0.0427,-0.0364,-0.0321,-0.0238,-0.0231,-0.0087,-0.0136,-0.0067,-0.0015,-0.0009,-0.0006,-0.0025,-0.0003,0.0032,0.003,0.0028,0.0026,0.0024,0,-0.0548,-0.056,-0.0584,-0.0584,-0.0576,-0.0579,-0.0573,-0.0525,-0.0506,-0.043,-0.0398,-0.0293,-0.0243,-0.0133,-0.0039,-0.0053,0.0121,0.0116,0.0157,0.0154,0.0169,0.0161,0.0245,0.0245,0.0245,0.0245,0.0244,0,-0.0569,-0.0586,-0.0604,-0.0616,-0.0637,-0.0614,-0.0612,-0.0586,-0.0527,-0.0488,-0.0409,-0.0346,-0.0212,-0.0107,-0.0017,0.0107,0.0144,0.0179,0.0194,0.0142,0.013,0.0177,0.0168,0.0249,0.0248,0.0247,0.0246,0,-0.059,-0.0603,-0.0633,-0.0646,-0.0655,-0.0671,-0.0659,-0.0646,-0.0588,-0.053,-0.0505,-0.0373,-0.0233,-0.0109,0.0073,0.0124,0.0248,0.0286,0.0209,0.0214,0.0228,0.0215,0.0353,0.0353,0.0353,0.0353,0.0353,0,-0.06,-0.0622,-0.0669,-0.0696,-0.0708,-0.0726,-0.0734,-0.069,-0.0661,-0.0541,-0.0508,-0.0363,-0.0267,-0.0037,0.0089,0.0263,0.028,0.0329,0.0299,0.0246,0.0246,0.0233,0.0221,0.0353,0.0353,0.0353,0.0353,0,-0.0616,-0.0644,-0.0671,-0.0734,-0.0766,-0.0786,-0.0786,-0.0761,-0.0684,-0.0639,-0.0487,-0.0353,-0.0194,-0.0025,0.0103,0.0227,0.0287,0.033,0.0331,0.0303,0.0248,0.0245,0.0233,0.0353,0.0353,0.0353,0.0353,0,-0.0629,-0.0661,-0.071,-0.0757,-0.0808,-0.0822,-0.0815,-0.0758,-0.0714,-0.0571,-0.0519,-0.0335,-0.0221,-0.0041,0.0083,0.0192,0.0217,0.0233,0.0239,0.024,0.0163,0.0073,0.016,0,0,0,0,0,-0.0631,-0.067,-0.0724,-0.0777,-0.0828,-0.085,-0.0836,-0.081,-0.0732,-0.0633,-0.0567,-0.0412,-0.0192,-0.0086,0.0021,0.0064,0.0214,0.0188,0.0228,0.0354,0.0354,0.0279,0,0,0,0,0,0,-0.0634,-0.069,-0.0722,-0.0783,-0.082,-0.0862,-0.0852,-0.08,-0.0725,-0.0631,-0.0507,-0.042,-0.0207,-0.026,0.0011,0.0048,0.008,0.0298,0.03,0.0354,0.0354,0.0354,0.0277,0,0,0,0,0]}]]